Helicity
82 79 61 85 113 155 133 152 165 202 236 73 121 205 234 254 252 268 224 222 204 183 162 152 158 161 163 155 146 145 147 138 136 148 167 173 149 126
37 36 107 41 72 124 157 132 146 157 154 152 163 201 196 215 235 268 229 273 216 196 179 162 161 155 159 164 165 160 154 154 153 152 162 164 168 164
133 169 182 267 220 204 143 105 101 104 76 91 159 155 116 133 166 222 227 237 248 183 184 172 166 172 166 168 175 178 168 163 165 163 165 156 151 151
133 157 286 181 205 236 197 301 225 75 66 93 82 62 106 204 108 152 209 216 211 149 163 177 180 185 178 167 165 165 163 166 174 185 193 179 151 137
199 110 236 181 153 139 82 90 95 121 105 71 87 156 67 -33 199 140 187 190 223 208 170 169 153 155 150 146 131 116 115 133 141 165 195 196 188 175
214 199 165 159 143 111 99 114 128 73 166 70 165 122 153 308 128 422 496 500 571 548 445 364 223 213 226 200 184 165 134 121 132 147 168 173 169 156
313 267 296 230 219 244 165 246 265 237 259 226 295 300 266 251 187 120 433 443 582 665 559 527 404 401 435 450 393 386 360 252 203 175 162 179 157 149
400 369 421 465 387 396 313 425 554 494 415 494 520 429 682 616 493 88 425 407 381 576 468 450 443 412 383 437 469 441 408 435 469 455 344 241 161 203
187 232 234 339 449 441 454 341 376 722 723 622 665 656 431 641 603 582 154 160 181 459 367 357 432 409 353 332 444 484 425 467 457 566 579 438 348 340
123 132 124 140 169 146 260 326 316 237 383 390 505 454 436 480 419 399 359 149 52 144 257 254 402 451 282 309 343 421 398 386 353 354 499 517 588 436
105 142 146 150 166 115 58 80 112 166 97 148 168 264 336 319 322 332 426 361 234 253 399 160 423 459 321 291 426 485 227 331 390 336 303 374 354 399
83 110 163 148 147 143 78 92 102 122 97 108 148 164 169 155 179 117 148 226 257 240 290 315 302 323 399 315 342 147 348 431 378 391 375 263 243 126
53 70 96 136 145 143 124 107 114 102 97 85 96 132 171 180 175 194 176 126 102 79 125 93 106 133 128 129 103 39 146 152 114 174 267 283 344 143
27 35 39 80 78 117 98 136 147 117 77 74 84 118 148 164 168 178 151 136 81 79 91 88 101 111 92 80 68 81 78 89 87 69 97 115 108 111
-15 -5 23 43 66 55 105 128 105 98 98 104 106 119 129 141 123 156 121 151 109 23 24 48 78 111 110 83 71 115 82 88 53 116 91 92 116 95
-1 -11 -8 -12 -2 4 34 56 55 66 49 51 78 82 88 113 121 143 148 176 152 129 75 54 24 57 92 69 69 75 67 57 105 102 80 76 71 42
-58 4 15 14 10 9 7 8 10 33 61 67 78 80 83 91 122 115 119 138 153 166 178 159 115 125 102 73 53 35 35 49 68 62 106 103 98 72
-35 -14 -22 -18 3 18 23 19 11 42 42 34 46 66 93 108 115 99 89 101 125 147 152 151 148 148 173 178 134 133 97 72 54 60 82 32 43 72
-2 -6 -11 -11 -13 -17 -1 17 25 24 26 36 54 69 81 88 100 125 148 152 150 135 140 127 132 133 150 167 171 109 97 96 72 97 112 123 94 35
13 14 20 20 19 22 25 6 -5 0 13 27 41 38 36 44 62 76 74 79 104 144 160 160 169 190 140 105 109 179 82 93 83 46 94 121 96 65
37 40 43 44 50 53 62 38 32 43 35 34 43 46 49 51 67 72 73 86 84 80 90 120 135 135 122 106 108 107 115 48 37 44 56 79 110 135
55 59 64 67 70 74 74 81 91 85 71 61 61 52 36 24 48 55 59 69 79 82 91 98 105 120 126 144 146 156 107 102 9 -40 49 56 56 126
68 67 72 78 84 87 91 106 108 105 100 96 95 60 34 33 44 43 36 46 58 73 92 112 126 141 154 156 157 120 112 80 66 70 48 42 43 62
Wind_Speed
78 86 85 83 80 75 73 75 84 95 96 89 88 74 68 72 74 64 61 55 53 51 50 48 47 44 42 41 39 37 36 35 36 36 37 36 37 37
58 56 67 75 77 79 76 75 79 88 97 78 78 64 67 68 74 70 67 61 58 59 56 53 50 48 45 43 42 41 40 38 37 38 39 40 40 40
40 46 46 49 55 53 66 75 84 83 90 90 75 68 70 71 73 77 72 68 69 66 61 57 55 52 50 49 47 45 44 42 40 39 40 42 43 44
37 37 38 44 48 52 57 60 68 81 83 86 77 81 78 74 75 75 74 69 69 69 70 67 64 60 59 59 57 55 51 48 45 43 43 44 46 47
25 28 31 39 45 52 56 60 70 77 79 87 83 74 85 70 70 71 67 68 63 66 64 68 71 70 71 72 73 75 74 69 62 55 52 51 51 50
30 32 34 37 42 47 51 58 66 71 77 75 61 61 69 75 65 57 51 48 50 46 43 50 55 61 65 67 70 73 75 75 71 67 65 61 60 57
35 34 36 38 38 40 42 47 51 54 61 64 62 59 59 60 64 71 50 47 41 46 50 49 48 47 51 54 59 62 66 72 76 78 76 73 73 72
38 37 37 37 36 39 40 41 42 42 41 45 50 49 54 57 56 53 49 55 54 49 52 49 52 53 53 52 55 56 59 60 60 63 68 68 71 73
45 41 39 40 39 39 41 41 42 43 32 29 27 26 36 47 52 54 46 52 53 58 54 53 55 57 56 58 55 56 58 60 60 61 65 67 67 70
55 54 50 50 49 42 41 40 38 36 32 29 29 24 31 41 39 44 46 40 40 47 53 58 60 63 58 53 58 57 58 59 60 63 64 69 77 78
55 57 59 56 55 49 41 40 37 35 37 34 34 32 32 37 38 38 42 47 50 48 51 52 62 68 58 57 60 60 54 60 66 70 71 71 74 80
45 45 48 50 46 49 46 43 37 38 39 38 37 38 38 40 42 39 42 47 52 50 54 55 58 59 64 61 60 60 61 65 67 70 73 70 72 79
51 54 56 62 56 53 49 45 42 42 40 40 40 41 42 42 44 44 44 43 43 44 51 49 55 54 58 67 66 63 66 72 67 69 71 74 77 77
56 55 57 60 60 62 61 60 56 54 42 44 46 47 49 50 51 51 49 49 46 44 50 51 52 57 62 69 68 69 70 72 68 68 71 72 72 72
57 57 57 58 59 59 61 61 59 58 57 56 56 56 56 57 56 56 54 55 51 50 53 54 55 60 63 68 75 77 79 71 66 76 74 75 79 75
59 59 59 58 59 59 60 61 62 62 61 60 61 61 61 61 62 62 61 61 58 58 53 48 49 63 71 71 75 78 75 76 79 77 77 80 76 73
61 61 63 63 63 63 63 63 63 64 64 64 65 66 66 66 67 66 65 64 65 66 67 64 63 65 65 74 82 78 76 78 75 79 83 86 81 78
61 62 64 65 66 66 67 67 66 68 68 68 69 70 71 71 72 70 69 69 70 70 71 72 73 73 71 64 58 73 79 83 83 82 84 87 86 78
63 65 66 67 68 67 68 69 69 69 69 69 69 70 72 73 74 74 75 75 75 75 75 74 74 76 81 84 82 73 85 87 86 85 83 87 92 86
65 67 68 70 70 70 69 68 69 69 69 71 71 72 74 76 76 76 77 78 79 79 78 76 75 77 84 91 93 91 81 84 83 84 88 86 87 85
69 69 70 71 71 72 71 69 68 69 70 72 73 73 75 77 78 78 79 80 82 81 83 82 82 85 84 85 89 86 83 73 74 79 84 86 86 85
70 71 71 71 72 73 74 75 74 72 72 72 72 74 77 79 80 82 83 85 84 85 87 86 84 84 85 87 91 91 87 82 75 76 69 69 76 80
70 71 72 72 73 74 74 75 75 75 73 72 73 77 79 82 81 82 84 84 86 88 88 90 87 85 85 87 91 90 88 84 78 76 68 59 65 68
Wind_Direction
267 264 261 262 261 262 260 258 257 259 257 255 255 250 250 248 250 247 247 243 239 234 233 230 232 232 233 234 237 237 235 233 233 233 232 231 229 226
275 275 269 262 266 259 258 261 260 260 258 254 251 255 249 251 249 245 247 245 241 241 241 239 237 236 234 237 242 245 245 243 242 238 237 234 235 235
287 283 276 274 273 275 264 262 259 258 256 256 262 260 255 249 251 247 247 248 249 247 243 240 241 243 245 248 247 248 249 247 246 245 248 250 248 250
296 295 290 284 284 277 273 277 270 261 259 259 261 261 263 251 252 249 247 248 250 250 248 248 248 250 253 256 258 259 258 254 252 252 252 252 254 256
320 319 311 299 293 282 281 283 274 269 267 262 264 266 253 275 271 249 248 249 253 255 253 252 254 256 258 261 264 266 267 268 269 268 267 266 263 259
337 334 328 320 309 297 291 289 284 277 267 264 263 264 265 264 286 268 246 251 252 258 260 262 259 260 262 264 267 269 269 271 273 273 273 272 270 267
349 341 339 340 337 332 312 303 297 291 275 267 266 269 272 271 265 274 265 251 258 264 260 266 265 268 270 273 274 276 275 274 276 277 278 277 275 276
353 348 343 340 336 342 344 345 335 311 297 276 268 264 275 274 272 277 276 260 259 276 264 267 271 270 274 278 280 281 281 282 283 285 283 282 281 280
4 357 351 346 339 337 342 351 355 350 337 309 284 282 287 290 282 271 288 278 272 282 274 268 280 275 277 281 283 284 284 286 286 287 288 287 287 287
9 5 1 359 353 345 344 348 344 349 344 325 329 316 302 306 302 292 285 283 277 294 291 274 285 280 282 282 287 284 285 287 288 287 290 289 290 288
6 7 7 6 2 359 354 353 347 339 342 336 339 340 336 330 332 308 306 291 283 291 304 287 289 282 284 285 288 288 287 291 291 289 288 290 290 289
351 352 354 357 355 358 358 353 341 332 332 335 337 337 338 333 336 334 321 302 292 294 305 295 300 297 283 284 291 290 290 293 292 289 290 291 292 288
348 351 352 359 356 355 353 346 340 332 333 336 333 333 332 330 331 331 329 322 313 309 319 310 304 308 293 287 291 292 297 293 290 294 293 290 290 290
349 345 349 353 357 360 360 360 355 352 330 331 331 330 329 328 328 327 321 315 316 316 314 315 308 304 298 292 290 296 295 292 296 294 294 292 293 292
352 349 345 347 349 351 353 352 351 348 346 343 335 329 325 331 332 329 331 328 323 316 315 311 309 306 300 297 293 292 293 294 294 294 295 293 292 293
349 349 347 346 346 345 345 347 347 344 343 340 337 334 333 332 330 329 325 326 325 323 330 330 323 308 298 296 295 293 294 290 295 296 295 294 294 293
340 345 343 342 341 342 342 343 343 341 339 338 336 334 332 331 328 327 326 324 321 319 318 319 318 315 311 299 291 292 293 294 297 298 297 292 293 293
339 341 341 341 340 340 338 337 339 337 336 335 333 332 329 328 326 325 325 323 320 319 318 316 314 312 309 309 310 298 295 294 295 296 295 292 291 293
336 336 336 336 335 335 335 336 336 337 337 335 334 333 331 329 326 325 323 321 319 318 317 315 314 310 304 299 301 304 299 297 296 294 295 292 290 290
335 333 333 332 332 331 333 333 332 332 333 332 332 331 330 328 327 325 324 322 319 317 315 314 312 310 304 299 298 298 299 295 294 294 296 296 294 294
334 333 333 332 331 330 331 331 332 332 332 332 332 331 331 329 327 325 323 320 316 314 311 309 309 308 305 303 298 298 299 300 296 294 296 294 293 294
335 334 334 333 332 331 330 328 328 329 330 330 330 330 330 328 325 323 321 318 316 313 310 309 309 308 305 301 298 298 298 298 296 294 295 294 292 289
336 334 333 333 332 331 330 329 327 326 326 327 327 327 327 325 324 323 321 319 316 313 311 309 309 307 304 302 298 297 296 296 296 296 294 294 298 297